Regional Weather Roundup
Issued by NWS Little Rock, AR

Home | Current Version | Previous Version | Graphics & Text | Print | Product List | Glossary On
Versions: 1 2 3 4 5 6 7 8 9 10 11 12 13 14 15 16 17 18 19 20 21 22 23 24 25 26 27 28 29 30 31 32 33 34 35 36 37 38 39 40 41 42 43 44 45 46 47 48 49 50
000
ASUS44 KLZK 180205
RWRLZK

WEATHER ROUNDUP FOR ARKANSAS
NATIONAL WEATHER SERVICE LITTLE ROCK AR
800 PM CST WED DEC 17 2014

NOTE: "FAIR" INDICATES FEW OR NO CLOUDS BELOW 12,000 FEET WITH NO
SIGNIFICANT WEATHER AND/OR OBSTRUCTIONS TO VISIBILITY.

ARZ001-003-010-029-180300-
NORTHWEST ARKANSAS

CITY           SKY/WX    TMP DP  RH WIND       PRES   REMARKS
FAYETTEVILLE   RAIN      36  35  96 CALM      30.19S FOG
FORT SMITH     RAIN      36  36 100 SE3       30.27R FOG
HARRISON       RAIN      33  32  96 SE6       30.23S FOG     WCI  28
BENTONVILLE    CLOUDY    36  30  80 E9        30.18F
ROGERS         LGT SNOW  34  33  96 E9        30.19F FOG     WCI  27
SILOAM SPGS    CLOUDY    34  28  80 E5        30.20F WCI  30
HIGHFILL       RAIN      35  32  88 E8        30.18F WCI  29
SPRINGDALE     LGT RAIN  36  34  93 E5        30.21S FOG
$$

ARZ004-005-016-180300-
NORTH CENTRAL ARKANSAS

CITY           SKY/WX    TMP DP  RH WIND       PRES   REMARKS
BATESVILLE     CLOUDY    36  32  87 CALM      30.25S
FLIPPIN        CLOUDY    36  30  80 CALM      30.25R
MTN HOME       LGT RAIN  34  33  96 CALM      30.24R FOG
$$

ARZ040-041-180300-
WEST CENTRAL ARKANSAS

CITY           SKY/WX    TMP DP  RH WIND       PRES   REMARKS
MENA           CLOUDY    37  36  93 NE7       30.23R
MOUNT IDA      LGT RAIN  38  36  92 VRB6      30.25R FOG
$$

ARZ009-017-025-026-028-180300-
NORTHEAST ARKANSAS

CITY           SKY/WX    TMP DP  RH WIND       PRES   REMARKS
CORNING        CLOUDY    37  32  81 SE5       30.28R
JONESBORO      LGT RAIN  37  34  89 E6        30.26F
NEWPORT        LGT RAIN  37  34  89 E8        30.26F VSB 3/4
WALNUT RIDGE   CLOUDY    37  30  75 E3        30.26R
BLYTHEVILLE    LGT RAIN  38  33  82 NE5       30.28S
$$

ARZ022-023-033-042-044-180300-
CENTRAL ARKANSAS

CITY           SKY/WX    TMP DP  RH WIND       PRES   REMARKS
LITTLE ROCK    CLOUDY    40  30  67 E8        30.26R
N LITTLE ROCK  CLOUDY    39  32  76 E6        30.26R
JACKSONVILLE   CLOUDY    40  30  69 NE6       30.25R
SEARCY         MIX PCPN  37  33  85 E8        30.27S
HOT SPRINGS    LGT RAIN  39  30  70 E5        30.23R
RUSSELLVILLE   RAIN      37  35  92 NE3       30.24F FOG
CLINTON        LGT RAIN  37  36  93 CALM      30.27R
$$

ARZ036-180300-
EAST ARKANSAS

CITY           SKY/WX    TMP DP  RH WIND       PRES   REMARKS
WEST MEMPHIS   CLOUDY    38  34  85 NE8       30.25F
$$

ARZ050-053-066-070-073-180300-
SOUTHWEST ARKANSAS

CITY           SKY/WX    TMP DP  RH WIND       PRES   REMARKS
ARKADELPHIA    LGT RAIN  40  36  86 NE7       30.24R
CAMDEN         CLOUDY    43  32  65 MISG      30.20F
TEXARKANA      CLOUDY    40  36  86 N8        30.23R
EL DORADO      CLOUDY    45  36  70 E8        30.19F
DE QUEEN       RAIN      38  36  92 NE6       30.21F FOG
$$

ARZ056-057-069-180300-
SOUTHEAST ARKANSAS

CITY           SKY/WX    TMP DP  RH WIND       PRES   REMARKS
PINE BLUFF     CLOUDY    41  33  73 NE10      30.22F
STUTTGART      CLOUDY    39  30  70 E7        30.25F
MONTICELLO     CLOUDY    43  35  73 NE8       30.22F

$$




USA.gov is the U.S. government's official web portal to all federal, state and local government web resources and services.